FFT113 KDCA-KBOS

Flight info

Callsign FFT113
Flight time 1h 6m
Altitude 37000
Route SOOKI6 SWANN BROSS Q419 JFK ROBUC3
Aircraft A320/M-SDE3FGHIRWY/LB1

Departure

Time 2026-05-04 21:00
Airport Ronald Reagan Washington National Airport (KDCA)

Arrival

Time 2026-05-04 22:06
Airport Boston Logan International Airport (KBOS)
Time Latitude Longitude Altitude Speed Heading
2026-05-04 20:36 38.85464 -77.04194 25 ft 0 kts 169°
2026-05-04 20:50 38.85480 -77.04198 28 ft 4 kts 157°
2026-05-04 20:50 38.85500 -77.04217 27 ft 4 kts 107°
2026-05-04 20:50 38.85501 -77.04238 30 ft 1 kts 72°
2026-05-04 20:50 38.85500 -77.04242 30 ft 0 kts 72°
2026-05-04 20:55 38.85503 -77.04229 29 ft 5 kts 72°
2026-05-04 20:55 38.85521 -77.04155 24 ft 10 kts 72°
2026-05-04 20:55 38.85541 -77.04074 23 ft 9 kts 72°
2026-05-04 20:55 38.85563 -77.04001 23 ft 8 kts 56°
2026-05-04 20:56 38.85603 -77.03971 24 ft 6 kts 20°
2026-05-04 20:56 38.85639 -77.03967 24 ft 5 kts 358°
2026-05-04 20:56 38.85667 -77.03970 24 ft 3 kts 354°
2026-05-04 20:56 38.85687 -77.03972 25 ft 3 kts 353°
2026-05-04 20:57 38.85722 -77.03978 25 ft 7 kts 353°
2026-05-04 20:57 38.85776 -77.03987 25 ft 9 kts 352°
2026-05-04 20:57 38.85851 -77.03994 25 ft 12 kts 358°
2026-05-04 20:57 38.85939 -77.03984 24 ft 13 kts 14°
2026-05-04 20:58 38.86029 -77.03951 22 ft 14 kts 17°
2026-05-04 20:58 38.86060 -77.03887 22 ft 8 kts 121°
2026-05-04 20:58 38.86011 -77.03859 21 ft 9 kts 173°
2026-05-04 20:58 38.85986 -77.03858 22 ft 1 kts 176°
2026-05-04 20:59 38.85967 -77.03856 22 ft 4 kts 176°
2026-05-04 20:59 38.85764 -77.03838 22 ft 65 kts 175°
2026-05-04 20:59 38.85104 -77.03769 21 ft 122 kts 175°
2026-05-04 20:59 38.84146 -77.03658 305 ft 140 kts 174°
2026-05-04 21:00 38.83252 -77.03525 1120 ft 120 kts 176°
2026-05-04 21:00 38.82454 -77.03402 1591 ft 121 kts 178°
2026-05-04 21:00 38.81544 -77.03267 1823 ft 140 kts 174°
2026-05-04 21:00 38.80556 -77.03066 2289 ft 147 kts 174°
2026-05-04 21:01 38.79541 -77.02820 2769 ft 149 kts 173°
2026-05-04 21:01 38.78526 -77.02534 3276 ft 151 kts 173°
2026-05-04 21:01 38.77446 -77.02283 3586 ft 165 kts 175°
2026-05-04 21:01 38.76255 -77.01894 3888 ft 192 kts 154°
2026-05-04 21:02 38.75320 -77.00524 4179 ft 225 kts 111°
2026-05-04 21:02 38.75073 -76.98425 4517 ft 254 kts 96°
2026-05-04 21:02 38.75045 -76.96060 4986 ft 276 kts 87°
2026-05-04 21:02 38.75518 -76.93624 5721 ft 288 kts 66°
2026-05-04 21:03 38.76541 -76.91395 6540 ft 293 kts 50°
2026-05-04 21:03 38.78003 -76.89574 7344 ft 295 kts 32°
2026-05-04 21:03 38.79743 -76.88187 8217 ft 296 kts 27°
2026-05-04 21:03 38.81515 -76.86812 9071 ft 299 kts 27°
2026-05-04 21:04 38.83299 -76.85424 9923 ft 302 kts 27°
2026-05-04 21:04 38.85105 -76.84016 10652 ft 305 kts 27°
2026-05-04 21:04 38.86913 -76.82427 11008 ft 329 kts 37°
2026-05-04 21:04 38.88676 -76.80389 11198 ft 353 kts 39°
2026-05-04 21:05 38.90534 -76.78232 11672 ft 364 kts 39°
2026-05-04 21:05 38.92404 -76.76058 12326 ft 370 kts 39°
2026-05-04 21:05 38.94346 -76.73798 13032 ft 374 kts 39°
2026-05-04 21:05 38.96264 -76.71571 13712 ft 379 kts 38°
2026-05-04 21:06 38.98229 -76.69293 14334 ft 382 kts 38°
2026-05-04 21:06 39.00210 -76.67000 14968 ft 385 kts 38°
2026-05-04 21:06 39.02191 -76.64662 15608 ft 388 kts 40°
2026-05-04 21:06 39.04142 -76.62235 16233 ft 392 kts 41°
2026-05-04 21:07 39.06079 -76.59740 16863 ft 395 kts 42°
2026-05-04 21:07 39.08014 -76.57215 17452 ft 398 kts 42°
2026-05-04 21:07 39.09846 -76.54506 18051 ft 405 kts 52°
2026-05-04 21:07 39.11281 -76.51360 18605 ft 411 kts 63°
2026-05-04 21:08 39.12254 -76.47878 19148 ft 417 kts 74°
2026-05-04 21:08 39.12764 -76.44183 19686 ft 421 kts 80°
2026-05-04 21:08 39.13189 -76.40439 20272 ft 424 kts 80°
2026-05-04 21:08 39.13613 -76.36674 20807 ft 427 kts 79°
2026-05-04 21:09 39.14038 -76.32879 21336 ft 429 kts 79°
2026-05-04 21:09 39.14462 -76.29057 21848 ft 432 kts 79°
2026-05-04 21:09 39.14884 -76.25219 22342 ft 435 kts 79°
2026-05-04 21:09 39.15315 -76.21344 22844 ft 438 kts 79°
2026-05-04 21:10 39.15759 -76.17455 23315 ft 441 kts 79°
2026-05-04 21:10 39.16216 -76.13535 23731 ft 444 kts 78°
2026-05-04 21:10 39.16522 -76.10928 23989 ft 445 kts 78°
2026-05-04 21:10 39.16982 -76.06975 24385 ft 447 kts 79°
2026-05-04 21:11 39.17438 -76.03001 24765 ft 449 kts 79°
2026-05-04 21:11 39.17893 -75.99007 25128 ft 451 kts 79°
2026-05-04 21:11 39.18425 -75.95018 25503 ft 451 kts 73°
2026-05-04 21:11 39.19816 -75.89995 25978 ft 448 kts 60°
2026-05-04 21:12 39.21400 -75.86559 26329 ft 445 kts 50°
2026-05-04 21:12 39.23390 -75.83527 26675 ft 441 kts 40°
2026-05-04 21:12 39.24921 -75.81737 26908 ft 439 kts 35°
2026-05-04 21:12 39.27267 -75.79193 27251 ft 441 kts 36°
2026-05-04 21:13 39.29617 -75.76631 27591 ft 443 kts 36°
2026-05-04 21:13 39.31971 -75.74051 27930 ft 445 kts 36°
2026-05-04 21:13 39.34300 -75.71490 28258 ft 446 kts 36°
2026-05-04 21:13 39.36666 -75.68886 28571 ft 448 kts 36°
2026-05-04 21:14 39.39042 -75.66272 28881 ft 449 kts 36°
2026-05-04 21:14 39.41423 -75.63655 29177 ft 451 kts 36°
2026-05-04 21:14 39.43817 -75.61020 29462 ft 452 kts 36°
2026-05-04 21:14 39.46215 -75.58380 29741 ft 453 kts 36°
2026-05-04 21:15 39.48621 -75.55731 29993 ft 455 kts 36°
2026-05-04 21:15 39.51035 -75.53074 30213 ft 456 kts 36°
2026-05-04 21:15 39.53447 -75.50417 30501 ft 455 kts 36°
2026-05-04 21:15 39.55850 -75.47763 30816 ft 454 kts 36°
2026-05-04 21:16 39.58245 -75.45109 31110 ft 453 kts 36°
2026-05-04 21:16 39.60638 -75.42455 31410 ft 452 kts 36°
2026-05-04 21:16 39.63023 -75.39812 31710 ft 451 kts 36°
2026-05-04 21:16 39.65406 -75.37172 32014 ft 450 kts 36°
2026-05-04 21:17 39.67778 -75.34539 32337 ft 449 kts 36°
2026-05-04 21:17 39.70145 -75.31906 32646 ft 447 kts 36°
2026-05-04 21:17 39.72504 -75.29280 32969 ft 446 kts 36°
2026-05-04 21:17 39.74857 -75.26659 33293 ft 445 kts 36°
2026-05-04 21:18 39.77200 -75.24048 33611 ft 443 kts 36°
2026-05-04 21:18 39.79473 -75.21348 33933 ft 445 kts 42°
2026-05-04 21:18 39.81532 -75.18330 34192 ft 446 kts 44°
2026-05-04 21:18 39.83575 -75.15290 34416 ft 446 kts 44°
2026-05-04 21:19 39.85617 -75.12252 34622 ft 447 kts 44°
2026-05-04 21:19 39.87667 -75.09202 34830 ft 447 kts 44°
2026-05-04 21:19 39.89719 -75.06157 35016 ft 448 kts 44°
2026-05-04 21:19 39.91776 -75.03106 35213 ft 449 kts 44°
2026-05-04 21:20 39.93836 -75.00044 35384 ft 449 kts 44°
2026-05-04 21:20 39.95892 -74.96977 35558 ft 450 kts 45°
2026-05-04 21:20 39.97805 -74.93718 35713 ft 455 kts 52°
2026-05-04 21:20 39.99553 -74.90280 35879 ft 456 kts 52°
2026-05-04 21:21 40.01311 -74.86826 36037 ft 457 kts 52°
2026-05-04 21:21 40.03072 -74.83371 36193 ft 458 kts 52°
2026-05-04 21:21 40.04835 -74.79915 36348 ft 458 kts 52°
2026-05-04 21:21 40.06601 -74.76450 36502 ft 459 kts 52°
2026-05-04 21:22 40.08369 -74.72975 36651 ft 460 kts 52°
2026-05-04 21:22 40.10137 -74.69491 36814 ft 460 kts 52°
2026-05-04 21:22 40.11903 -74.66006 36917 ft 461 kts 52°
2026-05-04 21:22 40.13680 -74.62505 36925 ft 462 kts 52°
2026-05-04 21:23 40.17232 -74.55490 36926 ft 463 kts 52°
2026-05-04 21:23 40.21078 -74.48808 36926 ft 456 kts 40°
2026-05-04 21:24 40.25888 -74.43491 36929 ft 452 kts 34°
2026-05-04 21:24 40.30737 -74.38324 36931 ft 452 kts 34°
2026-05-04 21:25 40.35641 -74.33063 36935 ft 453 kts 35°
2026-05-04 21:25 40.40483 -74.27870 36938 ft 453 kts 34°
2026-05-04 21:26 40.45356 -74.22635 36926 ft 453 kts 34°
2026-05-04 21:26 40.50235 -74.17375 36925 ft 454 kts 35°
2026-05-04 21:27 40.54564 -74.11278 36924 ft 463 kts 53°
2026-05-04 21:27 40.56102 -74.07540 36921 ft 468 kts 64°
2026-05-04 21:27 40.57175 -74.03477 36931 ft 471 kts 70°
2026-05-04 21:28 40.59082 -73.95255 36918 ft 463 kts 70°
2026-05-04 21:28 40.60005 -73.91276 36935 ft 447 kts 69°
2026-05-04 21:28 40.60899 -73.87409 36927 ft 438 kts 69°
2026-05-04 21:29 40.61783 -73.83586 36764 ft 437 kts 69°
2026-05-04 21:29 40.62776 -73.79816 35983 ft 438 kts 61°
2026-05-04 21:29 40.64219 -73.76265 34914 ft 443 kts 51°
2026-05-04 21:29 40.66100 -73.73054 34068 ft 440 kts 41°
2026-05-04 21:30 40.68171 -73.70084 33147 ft 443 kts 41°
2026-05-04 21:30 40.70252 -73.67059 32153 ft 448 kts 42°
2026-05-04 21:30 40.72343 -73.63988 31178 ft 452 kts 42°
2026-05-04 21:30 40.74444 -73.60887 30247 ft 455 kts 42°
2026-05-04 21:31 40.78689 -73.54614 28072 ft 461 kts 43°
2026-05-04 21:31 40.80830 -73.51465 27292 ft 458 kts 43°
2026-05-04 21:31 40.82922 -73.48379 27029 ft 444 kts 43°
2026-05-04 21:32 40.84917 -73.45428 26921 ft 430 kts 43°
2026-05-04 21:32 40.86909 -73.42489 26798 ft 428 kts 42°
2026-05-04 21:32 40.88887 -73.39580 26547 ft 424 kts 42°
2026-05-04 21:32 40.90852 -73.36687 26330 ft 423 kts 43°
2026-05-04 21:33 40.92813 -73.33795 26112 ft 421 kts 43°
2026-05-04 21:33 40.94763 -73.30914 25901 ft 420 kts 43°
2026-05-04 21:33 40.96708 -73.28030 25678 ft 419 kts 43°
2026-05-04 21:33 40.98643 -73.25155 25443 ft 418 kts 43°
2026-05-04 21:34 41.00575 -73.22289 25219 ft 416 kts 43°
2026-05-04 21:34 41.02498 -73.19433 25004 ft 415 kts 43°
2026-05-04 21:34 41.04416 -73.16582 24790 ft 414 kts 43°
2026-05-04 21:34 41.06330 -73.13738 24565 ft 413 kts 43°
2026-05-04 21:35 41.08239 -73.10902 24359 ft 412 kts 43°
2026-05-04 21:35 41.10140 -73.08065 24146 ft 411 kts 43°
2026-05-04 21:35 41.12032 -73.05236 23935 ft 410 kts 43°
2026-05-04 21:35 41.13921 -73.02416 23723 ft 408 kts 43°
2026-05-04 21:36 41.15804 -72.99603 23509 ft 407 kts 43°
2026-05-04 21:36 41.17676 -72.96796 23277 ft 406 kts 43°
2026-05-04 21:36 41.19549 -72.93987 23069 ft 405 kts 44°
2026-05-04 21:36 41.21266 -72.91013 22874 ft 409 kts 53°
2026-05-04 21:37 41.22630 -72.87677 22777 ft 412 kts 59°
2026-05-04 21:37 41.23925 -72.84278 22588 ft 412 kts 59°
2026-05-04 21:37 41.25218 -72.80899 22321 ft 410 kts 59°
2026-05-04 21:37 41.26492 -72.77572 22054 ft 408 kts 59°
2026-05-04 21:38 41.27778 -72.74217 21790 ft 407 kts 59°
2026-05-04 21:38 41.29060 -72.70865 21528 ft 406 kts 59°
2026-05-04 21:38 41.30334 -72.67526 21276 ft 404 kts 59°
2026-05-04 21:38 41.31601 -72.64191 21026 ft 403 kts 59°
2026-05-04 21:39 41.32864 -72.60869 20895 ft 402 kts 59°
2026-05-04 21:39 41.34126 -72.57552 20926 ft 402 kts 59°
2026-05-04 21:39 41.35391 -72.54230 20924 ft 402 kts 59°
2026-05-04 21:39 41.36652 -72.50908 20922 ft 402 kts 59°
2026-05-04 21:40 41.37910 -72.47581 20924 ft 402 kts 59°
2026-05-04 21:40 41.39166 -72.44256 20924 ft 402 kts 59°
2026-05-04 21:40 41.40420 -72.40936 20924 ft 402 kts 59°
2026-05-04 21:40 41.41675 -72.37610 20926 ft 402 kts 59°
2026-05-04 21:41 41.42927 -72.34282 20921 ft 402 kts 59°
2026-05-04 21:41 41.44176 -72.30960 20922 ft 401 kts 59°
2026-05-04 21:41 41.45424 -72.27629 20922 ft 401 kts 59°
2026-05-04 21:41 41.46672 -72.24301 20922 ft 401 kts 59°
2026-05-04 21:42 41.47922 -72.20972 20920 ft 401 kts 59°
2026-05-04 21:42 41.49164 -72.17642 20711 ft 401 kts 60°
2026-05-04 21:42 41.50389 -72.14307 20459 ft 399 kts 60°
2026-05-04 21:42 41.51604 -72.10978 20206 ft 398 kts 60°
2026-05-04 21:43 41.52814 -72.07661 19958 ft 397 kts 60°
2026-05-04 21:43 41.54016 -72.04344 19718 ft 396 kts 61°
2026-05-04 21:43 41.55213 -72.01038 19469 ft 395 kts 60°
2026-05-04 21:43 41.56368 -71.97716 19200 ft 394 kts 63°
2026-05-04 21:44 41.57417 -71.94389 18962 ft 394 kts 65°
2026-05-04 21:44 41.58421 -71.90988 18751 ft 393 kts 66°
2026-05-04 21:44 41.59400 -71.87585 18508 ft 392 kts 66°
2026-05-04 21:44 41.60373 -71.84183 18273 ft 391 kts 66°
2026-05-04 21:45 41.61346 -71.80794 18011 ft 390 kts 66°
2026-05-04 21:45 41.62325 -71.77426 17736 ft 389 kts 66°
2026-05-04 21:45 41.63311 -71.74065 17460 ft 387 kts 66°
2026-05-04 21:45 41.64295 -71.70724 17191 ft 385 kts 66°
2026-05-04 21:46 41.65274 -71.67400 16930 ft 384 kts 66°
2026-05-04 21:46 41.66247 -71.64091 16662 ft 378 kts 66°
2026-05-04 21:46 41.67199 -71.60851 16401 ft 370 kts 66°
2026-05-04 21:46 41.68132 -71.57681 16145 ft 364 kts 66°
2026-05-04 21:47 41.69051 -71.54561 15889 ft 357 kts 66°
2026-05-04 21:47 41.69951 -71.51491 15635 ft 352 kts 66°
2026-05-04 21:47 41.70833 -71.48462 15384 ft 349 kts 66°
2026-05-04 21:47 41.71714 -71.45442 15138 ft 347 kts 66°
2026-05-04 21:48 41.72672 -71.42489 14886 ft 344 kts 59°
2026-05-04 21:48 41.73861 -71.39715 14642 ft 343 kts 57°
2026-05-04 21:48 41.75049 -71.36951 14404 ft 342 kts 58°
2026-05-04 21:48 41.76231 -71.34191 14163 ft 341 kts 58°
2026-05-04 21:49 41.77406 -71.31441 13925 ft 340 kts 58°
2026-05-04 21:49 41.78577 -71.28693 13684 ft 339 kts 58°
2026-05-04 21:49 41.79752 -71.25932 13052 ft 347 kts 58°
2026-05-04 21:49 41.80963 -71.23090 12484 ft 349 kts 58°
2026-05-04 21:50 41.82129 -71.20339 12343 ft 338 kts 58°
2026-05-04 21:50 41.83280 -71.17624 12092 ft 332 kts 57°
2026-05-04 21:50 41.84408 -71.14960 11828 ft 326 kts 57°
2026-05-04 21:50 41.85517 -71.12340 11587 ft 320 kts 57°
2026-05-04 21:51 41.86614 -71.09772 11333 ft 315 kts 56°
2026-05-04 21:51 41.87710 -71.07242 11078 ft 312 kts 56°
2026-05-04 21:51 41.88800 -71.04738 10837 ft 310 kts 56°
2026-05-04 21:51 41.89885 -71.02237 10588 ft 309 kts 56°
2026-05-04 21:52 41.90960 -70.99752 10345 ft 307 kts 56°
2026-05-04 21:52 41.92031 -70.97272 10103 ft 306 kts 56°
2026-05-04 21:52 41.93095 -70.94801 9943 ft 305 kts 56°
2026-05-04 21:52 41.94156 -70.92335 9818 ft 305 kts 56°
2026-05-04 21:53 41.95218 -70.89872 9688 ft 304 kts 56°
2026-05-04 21:53 41.96274 -70.87412 9545 ft 304 kts 56°
2026-05-04 21:53 41.97328 -70.84947 9411 ft 304 kts 56°
2026-05-04 21:53 41.98383 -70.82487 9280 ft 303 kts 56°
2026-05-04 21:54 41.99425 -70.80063 9148 ft 303 kts 56°
2026-05-04 21:54 42.00478 -70.77615 9017 ft 303 kts 56°
2026-05-04 21:54 42.01691 -70.75330 8869 ft 298 kts 43°
2026-05-04 21:54 42.03077 -70.73264 8740 ft 297 kts 43°
2026-05-04 21:55 42.04459 -70.71198 8608 ft 297 kts 43°
2026-05-04 21:55 42.05836 -70.69131 8481 ft 296 kts 43°
2026-05-04 21:55 42.07210 -70.67067 8349 ft 296 kts 43°
2026-05-04 21:55 42.08586 -70.65000 8222 ft 296 kts 43°
2026-05-04 21:56 42.10019 -70.63022 8092 ft 293 kts 35°
2026-05-04 21:56 42.11753 -70.61748 7941 ft 279 kts
2026-05-04 21:56 42.13625 -70.61589 7535 ft 267 kts 349°
2026-05-04 21:56 42.15460 -70.61902 7100 ft 266 kts 346°
2026-05-04 21:57 42.17289 -70.62264 6679 ft 266 kts 346°
2026-05-04 21:57 42.19117 -70.62621 6272 ft 265 kts 346°
2026-05-04 21:57 42.20936 -70.62970 6037 ft 264 kts 346°
2026-05-04 21:57 42.22771 -70.63321 5771 ft 267 kts 346°
2026-05-04 21:58 42.24607 -70.63672 5408 ft 267 kts 346°
2026-05-04 21:58 42.26446 -70.64021 5053 ft 267 kts 346°
2026-05-04 21:58 42.28264 -70.64373 4601 ft 268 kts 346°
2026-05-04 21:58 42.30115 -70.64737 4079 ft 270 kts 346°
2026-05-04 21:59 42.31979 -70.65109 3570 ft 272 kts 346°
2026-05-04 21:59 42.33852 -70.65490 3124 ft 272 kts 346°
2026-05-04 21:59 42.35678 -70.65855 3004 ft 257 kts 346°
2026-05-04 21:59 42.37377 -70.66227 3010 ft 236 kts 338°
2026-05-04 22:00 42.38687 -70.67279 3018 ft 213 kts 303°
2026-05-04 22:00 42.39410 -70.68978 3015 ft 208 kts 288°
2026-05-04 22:00 42.39942 -70.70742 3006 ft 195 kts 286°
2026-05-04 22:00 42.40376 -70.72421 3008 ft 182 kts 275°
2026-05-04 22:01 42.40367 -70.74010 3023 ft 159 kts 256°
2026-05-04 22:01 42.40129 -70.75376 3001 ft 142 kts 255°
2026-05-04 22:01 42.39909 -70.76639 3003 ft 135 kts 255°
2026-05-04 22:01 42.39694 -70.77867 2979 ft 134 kts 254°
2026-05-04 22:02 42.39481 -70.79085 2865 ft 132 kts 254°
2026-05-04 22:02 42.39273 -70.80275 2742 ft 131 kts 253°
2026-05-04 22:02 42.39063 -70.81473 2563 ft 131 kts 253°
2026-05-04 22:02 42.38853 -70.82672 2393 ft 131 kts 255°
2026-05-04 22:03 42.38643 -70.83874 2227 ft 129 kts 253°
2026-05-04 22:03 42.38435 -70.85058 2052 ft 129 kts 254°
2026-05-04 22:03 42.38227 -70.86246 1878 ft 130 kts 253°
2026-05-04 22:03 42.38023 -70.87405 1709 ft 128 kts 253°
2026-05-04 22:04 42.37818 -70.88573 1540 ft 128 kts 252°
2026-05-04 22:04 42.37611 -70.89747 1366 ft 128 kts 252°
2026-05-04 22:04 42.37405 -70.90919 1185 ft 129 kts 254°
2026-05-04 22:04 42.37198 -70.92097 1023 ft 127 kts 255°
2026-05-04 22:05 42.36991 -70.93274 865 ft 130 kts 255°
2026-05-04 22:05 42.36781 -70.94461 700 ft 130 kts 254°
2026-05-04 22:05 42.36571 -70.95654 527 ft 130 kts 252°
2026-05-04 22:05 42.36431 -70.96449 414 ft 132 kts 251°
2026-05-04 22:06 42.36220 -70.97644 245 ft 129 kts 253°
2026-05-04 22:06 42.36011 -70.98826 73 ft 129 kts 250°
2026-05-04 22:06 42.35797 -70.99928 31 ft 108 kts 254°
2026-05-04 22:06 42.35671 -71.00743 23 ft 32 kts 259°
2026-05-04 22:07 42.35635 -71.00987 24 ft 26 kts 270°
2026-05-04 22:07 42.35673 -71.01179 25 ft 21 kts 304°
2026-05-04 22:07 42.35761 -71.01243 23 ft 12 kts 13°
2026-05-04 22:07 42.35839 -71.01219 23 ft 11 kts 15°
2026-05-04 22:08 42.35904 -71.01191 24 ft 10 kts 21°
2026-05-04 22:08 42.35976 -71.01151 24 ft 14 kts 21°
2026-05-04 22:08 42.36067 -71.01105 22 ft 14 kts 20°
2026-05-04 22:08 42.36149 -71.01069 24 ft 11 kts 18°
2026-05-04 22:09 42.36217 -71.01039 24 ft 10 kts 19°
2026-05-04 22:09 42.36278 -71.01008 25 ft 10 kts 20°
2026-05-04 22:09 42.36346 -71.00975 25 ft 10 kts 19°
2026-05-04 22:09 42.36401 -71.00948 27 ft 7 kts 21°
2026-05-04 22:10 42.36443 -71.00930 29 ft 5 kts
2026-05-04 22:10 42.36465 -71.00936 29 ft 3 kts 339°
2026-05-04 22:10 42.36490 -71.00963 29 ft 7 kts 310°
2026-05-04 22:10 42.36519 -71.01055 28 ft 15 kts 290°
2026-05-04 22:11 42.36571 -71.01188 27 ft 15 kts 328°
2026-05-04 22:11 42.36661 -71.01178 27 ft 12 kts 17°
2026-05-04 22:11 42.36738 -71.01147 26 ft 12 kts
2026-05-04 22:11 42.36816 -71.01183 24 ft 13 kts 321°
2026-05-04 22:12 42.36878 -71.01262 25 ft 11 kts 315°
2026-05-04 22:12 42.36926 -71.01328 25 ft 8 kts 314°